Time,TemperatureF,DewpointF,PressureIn,WindDirection,WindDirectionDegrees,WindSpeedMPH,WindSpeedGustMPH,Humidity,HourlyPrecipIn,Conditions,Clouds,dailyrainin,SoftwareType,DateUTC
2013-04-05 00:00:00,45.7,42.9,29.94,North,0,1.0,-999.0,90,0.00,,,0.00,Wunderground v.1.15,2013-04-05 05:00:00,
2013-04-05 00:05:00,45.7,42.9,29.94,North,0,1.0,-999.0,90,0.00,,,0.00,Wunderground v.1.15,2013-04-05 05:05:00,
2013-04-05 00:10:00,45.7,42.9,29.94,North,0,1.0,-999.0,90,0.00,,,0.00,Wunderground v.1.15,2013-04-05 05:10:00,
2013-04-05 00:15:00,45.7,42.9,29.94,North,0,1.0,-999.0,90,0.00,,,0.00,Wunderground v.1.15,2013-04-05 05:15:00,
2013-04-05 00:20:00,45.7,42.9,29.94,North,0,1.0,-999.0,90,0.00,,,0.00,Wunderground v.1.15,2013-04-05 05:20:00,
2013-04-05 00:25:00,45.7,42.9,29.94,North,0,1.0,-999.0,90,0.00,,,0.00,Wunderground v.1.15,2013-04-05 05:25:00,
2013-04-05 00:30:00,45.7,42.9,29.94,North,0,1.0,-999.0,90,0.00,,,0.00,Wunderground v.1.15,2013-04-05 05:30:00,
2013-04-05 00:35:00,45.7,42.9,29.94,North,0,1.0,-999.0,90,0.00,,,0.00,Wunderground v.1.15,2013-04-05 05:35:00,
2013-04-05 00:40:00,45.7,42.9,29.94,North,0,1.0,-999.0,90,0.00,,,0.00,Wunderground v.1.15,2013-04-05 05:40:00,
2013-04-05 00:45:00,45.5,42.4,29.94,NNE,23,1.0,-999.0,89,0.00,,,0.00,Wunderground v.1.15,2013-04-05 05:45:00,
2013-04-05 00:50:00,45.5,42.4,29.94,NNE,23,1.0,-999.0,89,0.00,,,0.00,Wunderground v.1.15,2013-04-05 05:50:00,
2013-04-05 00:55:00,45.5,42.4,29.94,NNE,23,1.0,-999.0,89,0.00,,,0.00,Wunderground v.1.15,2013-04-05 05:55:00,
2013-04-05 01:00:00,45.5,42.4,29.94,NNE,23,1.0,-999.0,89,0.00,,,0.00,Wunderground v.1.15,2013-04-05 06:00:00,
2013-04-05 01:05:00,45.5,42.4,29.94,NNE,23,1.0,-999.0,89,0.00,,,0.00,Wunderground v.1.15,2013-04-05 06:05:00,
2013-04-05 01:10:00,45.5,42.4,29.94,NNE,23,1.0,-999.0,89,0.00,,,0.00,Wunderground v.1.15,2013-04-05 06:10:00,
2013-04-05 01:15:00,45.5,42.7,29.94,North,0,1.0,-999.0,90,0.00,,,0.00,Wunderground v.1.15,2013-04-05 06:15:00,
2013-04-05 01:20:00,45.5,42.7,29.94,North,0,1.0,-999.0,90,0.00,,,0.00,Wunderground v.1.15,2013-04-05 06:20:00,
2013-04-05 01:25:00,45.5,42.7,29.94,North,0,1.0,-999.0,90,0.00,,,0.00,Wunderground v.1.15,2013-04-05 06:25:00,
2013-04-05 01:30:00,45.5,42.7,29.94,North,0,1.0,-999.0,90,0.00,,,0.00,Wunderground v.1.15,2013-04-05 06:30:00,
2013-04-05 01:35:00,45.5,42.7,29.94,North,0,1.0,-999.0,90,0.00,,,0.00,Wunderground v.1.15,2013-04-05 06:35:00,
2013-04-05 01:40:00,45.5,42.7,29.94,North,0,1.0,-999.0,90,0.00,,,0.00,Wunderground v.1.15,2013-04-05 06:40:00,
2013-04-05 01:45:00,45.4,42.3,29.94,NNE,23,1.0,-999.0,89,0.00,,,0.00,Wunderground v.1.15,2013-04-05 06:45:00,
2013-04-05 01:50:00,45.4,42.3,29.94,NNE,23,1.0,-999.0,89,0.00,,,0.00,Wunderground v.1.15,2013-04-05 06:50:00,
2013-04-05 01:55:00,45.4,42.3,29.94,NNE,23,1.0,-999.0,89,0.00,,,0.00,Wunderground v.1.15,2013-04-05 06:55:00,
2013-04-05 02:00:00,45.4,42.3,29.94,NNE,23,1.0,-999.0,89,0.00,,,0.00,Wunderground v.1.15,2013-04-05 07:00:00,
2013-04-05 02:05:00,45.4,42.3,29.94,NNE,23,1.0,-999.0,89,0.00,,,0.00,Wunderground v.1.15,2013-04-05 07:05:00,
2013-04-05 02:10:00,45.4,42.3,29.94,NNE,23,1.0,-999.0,89,0.00,,,0.00,Wunderground v.1.15,2013-04-05 07:10:00,
2013-04-05 02:15:00,45.4,42.3,29.94,North,0,1.0,-999.0,89,0.00,,,0.00,Wunderground v.1.15,2013-04-05 07:15:00,
2013-04-05 02:20:00,45.4,42.3,29.94,North,0,1.0,-999.0,89,0.00,,,0.00,Wunderground v.1.15,2013-04-05 07:20:00,
2013-04-05 02:25:00,45.4,42.3,29.94,North,0,1.0,-999.0,89,0.00,,,0.00,Wunderground v.1.15,2013-04-05 07:25:00,
2013-04-05 02:30:00,45.4,42.3,29.94,North,0,1.0,-999.0,89,0.00,,,0.00,Wunderground v.1.15,2013-04-05 07:30:00,
2013-04-05 02:35:00,45.4,42.3,29.94,North,0,1.0,-999.0,89,0.00,,,0.00,Wunderground v.1.15,2013-04-05 07:35:00,
2013-04-05 02:40:00,45.4,42.3,29.94,North,0,1.0,-999.0,89,0.00,,,0.00,Wunderground v.1.15,2013-04-05 07:40:00,
2013-04-05 02:45:00,45.3,42.2,29.95,NNE,23,2.0,-999.0,89,0.00,,,0.00,Wunderground v.1.15,2013-04-05 07:45:00,
2013-04-05 02:50:00,45.3,42.2,29.95,NNE,23,2.0,-999.0,89,0.00,,,0.00,Wunderground v.1.15,2013-04-05 07:50:00,
2013-04-05 02:55:00,45.3,42.2,29.95,NNE,23,2.0,-999.0,89,0.00,,,0.00,Wunderground v.1.15,2013-04-05 07:55:00,
2013-04-05 03:00:00,45.3,42.2,29.95,NNE,23,2.0,-999.0,89,0.00,,,0.00,Wunderground v.1.15,2013-04-05 08:00:00,
2013-04-05 03:05:00,45.3,42.2,29.95,NNE,23,2.0,-999.0,89,0.00,,,0.00,Wunderground v.1.15,2013-04-05 08:05:00,
2013-04-05 03:10:00,45.3,42.2,29.95,NNE,23,2.0,-999.0,89,0.00,,,0.00,Wunderground v.1.15,2013-04-05 08:10:00,
2013-04-05 03:15:00,45.1,42.1,29.95,NNE,23,2.0,-999.0,89,0.00,,,0.00,Wunderground v.1.15,2013-04-05 08:15:00,
2013-04-05 03:20:00,45.1,42.1,29.95,NNE,23,2.0,-999.0,89,0.00,,,0.00,Wunderground v.1.15,2013-04-05 08:20:00,
2013-04-05 03:25:00,45.1,42.1,29.95,NNE,23,2.0,-999.0,89,0.00,,,0.00,Wunderground v.1.15,2013-04-05 08:25:00,
2013-04-05 03:30:00,45.1,42.1,29.95,NNE,23,2.0,-999.0,89,0.00,,,0.00,Wunderground v.1.15,2013-04-05 08:30:00,
2013-04-05 09:56:00,49.0,45.3,30.05,North,5,5.0,5.0,87,0.00,,,0.00,Wunderground v.1.15,2013-04-05 14:56:00,
2013-04-05 10:00:00,49.3,45.6,30.05,NNE,19,4.0,14.0,87,0.00,,,0.00,Wunderground v.1.15,2013-04-05 15:00:00,
2013-04-05 10:05:00,49.4,45.4,30.05,NNE,33,3.0,14.0,86,0.00,,,0.00,Wunderground v.1.15,2013-04-05 15:05:00,
2013-04-05 10:10:00,49.5,45.5,30.05,NE,43,4.0,14.0,86,0.00,,,0.00,Wunderground v.1.15,2013-04-05 15:10:00,
2013-04-05 10:15:00,49.6,45.3,30.05,North,360,4.0,14.0,85,0.00,,,0.00,Wunderground v.1.15,2013-04-05 15:15:00,
2013-04-05 10:20:00,49.9,45.6,30.05,ENE,57,4.0,14.0,85,0.00,,,0.00,Wunderground v.1.15,2013-04-05 15:20:00,
2013-04-05 10:25:00,49.9,45.6,30.06,NNE,25,4.0,14.0,85,0.00,,,0.00,Wunderground v.1.15,2013-04-05 15:25:00,
2013-04-05 10:30:00,49.9,45.6,30.06,North,360,4.0,4.0,85,0.00,,,0.00,Wunderground v.1.15,2013-04-05 15:30:00,
2013-04-05 10:35:00,50.1,45.5,30.06,ENE,57,4.0,14.0,84,0.00,,,0.00,Wunderground v.1.15,2013-04-05 15:35:00,
2013-04-05 10:40:00,50.2,45.6,30.06,NE,52,4.0,4.0,84,0.00,,,0.00,Wunderground v.1.15,2013-04-05 15:40:00,
2013-04-05 10:45:00,50.5,45.8,30.06,NNE,28,3.0,7.0,84,0.00,,,0.00,Wunderground v.1.15,2013-04-05 15:45:00,
2013-04-05 10:50:00,50.6,45.9,30.06,NE,43,3.0,3.0,84,0.00,,,0.00,Wunderground v.1.15,2013-04-05 15:50:00,
2013-04-05 11:00:00,51.3,46.3,30.07,WSW,244,2.0,14.0,83,0.00,,,0.00,Wunderground v.1.15,2013-04-05 16:00:00,
2013-04-05 11:05:00,51.7,46.4,30.07,North,355,2.0,14.0,82,0.00,,,0.00,Wunderground v.1.15,2013-04-05 16:05:00,
2013-04-05 11:15:00,51.8,46.2,30.07,NNE,22,4.0,14.0,81,0.00,,,0.00,Wunderground v.1.15,2013-04-05 16:15:00,
2013-04-05 11:20:00,51.8,46.5,30.07,NNE,30,5.0,5.0,82,0.00,,,0.00,Wunderground v.1.15,2013-04-05 16:20:00,
2013-04-05 11:25:00,52.2,46.5,30.07,NNE,15,4.0,14.0,81,0.00,,,0.00,Wunderground v.1.15,2013-04-05 16:25:00,
2013-04-05 11:30:00,52.8,47.1,30.07,NNE,30,3.0,14.0,81,0.00,,,0.00,Wunderground v.1.15,2013-04-05 16:30:00,
2013-04-05 11:35:00,52.9,46.6,30.07,NNE,30,4.0,14.0,79,0.00,,,0.00,Wunderground v.1.15,2013-04-05 16:35:00,
2013-04-05 11:40:00,53.3,47.3,30.06,NE,41,4.0,14.0,80,0.00,,,0.00,Wunderground v.1.15,2013-04-05 16:40:00,
2013-04-05 11:45:00,54.1,47.4,30.06,NNE,19,4.0,14.0,78,0.00,,,0.00,Wunderground v.1.15,2013-04-05 16:45:00,
2013-04-05 11:50:00,54.5,47.1,30.06,NNE,26,5.0,5.0,76,0.00,,,0.00,Wunderground v.1.15,2013-04-05 16:50:00,
2013-04-05 11:55:00,55.2,47.8,30.06,NE,38,5.0,14.0,76,0.00,,,0.00,Wunderground v.1.15,2013-04-05 16:55:00,
2013-04-05 12:00:00,56.3,48.5,30.06,West,273,4.0,4.0,75,0.00,,,0.00,Wunderground v.1.15,2013-04-05 17:00:00,
2013-04-05 12:05:00,57.0,48.1,30.06,NNE,12,3.0,14.0,72,0.00,,,0.00,Wunderground v.1.15,2013-04-05 17:05:00,
2013-04-05 12:10:00,56.8,47.9,30.06,West,261,3.0,14.0,72,0.00,,,0.00,Wunderground v.1.15,2013-04-05 17:10:00,
2013-04-05 12:15:00,56.6,47.7,30.06,NE,38,3.0,14.0,72,0.00,,,0.00,Wunderground v.1.15,2013-04-05 17:15:00,
2013-04-05 12:25:00,57.2,48.3,30.05,NW,311,3.0,14.0,72,0.00,,,0.00,Wunderground v.1.15,2013-04-05 17:25:00,
2013-04-05 12:30:00,57.8,48.5,30.05,NNE,15,3.0,3.0,71,0.00,,,0.00,Wunderground v.1.15,2013-04-05 17:30:00,
2013-04-05 12:35:00,58.0,48.3,30.05,NE,37,3.0,4.0,70,0.00,,,0.00,Wunderground v.1.15,2013-04-05 17:35:00,
2013-04-05 12:40:00,58.0,48.6,30.04,NNE,25,3.0,14.0,71,0.00,,,0.00,Wunderground v.1.15,2013-04-05 17:40:00,
2013-04-05 12:45:00,57.8,48.5,30.04,NW,313,4.0,14.0,71,0.00,,,0.00,Wunderground v.1.15,2013-04-05 17:45:00,
2013-04-05 12:50:00,58.8,48.6,30.04,NNE,21,5.0,5.0,69,0.00,,,0.00,Wunderground v.1.15,2013-04-05 17:50:00,
2013-04-05 12:55:00,58.9,48.7,30.04,NE,36,4.0,14.0,69,0.00,,,0.00,Wunderground v.1.15,2013-04-05 17:55:00,
2013-04-05 13:00:00,59.5,48.9,30.04,NE,49,3.0,14.0,68,0.00,,,0.00,Wunderground v.1.15,2013-04-05 18:00:00,
2013-04-05 13:05:00,59.9,48.9,30.04,NNE,26,4.0,14.0,67,0.00,,,0.00,Wunderground v.1.15,2013-04-05 18:05:00,
2013-04-05 13:10:00,59.5,48.9,30.03,WSW,257,6.0,6.0,68,0.00,,,0.00,Wunderground v.1.15,2013-04-05 18:10:00,
2013-04-05 13:15:00,59.5,48.9,30.03,NE,34,5.0,14.0,68,0.00,,,0.00,Wunderground v.1.15,2013-04-05 18:15:00,
2013-04-05 13:20:00,60.1,48.7,30.03,North,360,4.0,4.0,66,0.00,,,0.00,Wunderground v.1.15,2013-04-05 18:20:00,
2013-04-05 13:25:00,60.3,48.9,30.02,NNE,14,4.0,14.0,66,0.00,,,0.00,Wunderground v.1.15,2013-04-05 18:25:00,
2013-04-05 13:30:00,60.5,49.1,30.02,NNE,13,4.0,14.0,66,0.00,,,0.00,Wunderground v.1.15,2013-04-05 18:30:00,
2013-04-05 13:35:00,60.5,47.8,30.02,NNE,20,6.0,14.0,63,0.00,,,0.00,Wunderground v.1.15,2013-04-05 18:35:00,
2013-04-05 13:40:00,60.8,48.5,30.01,NE,55,7.0,7.0,64,0.00,,,0.00,Wunderground v.1.15,2013-04-05 18:40:00,
2013-04-05 13:50:00,61.2,49.3,30.01,NNE,19,4.0,14.0,65,0.00,,,0.00,Wunderground v.1.15,2013-04-05 18:50:00,
2013-04-05 13:55:00,61.6,48.4,30.01,NE,44,5.0,14.0,62,0.00,,,0.00,Wunderground v.1.15,2013-04-05 18:55:00,
2013-04-05 14:00:00,62.2,49.0,30.01,NNE,19,4.0,14.0,62,0.00,,,0.00,Wunderground v.1.15,2013-04-05 19:00:00,
2013-04-05 14:05:00,62.1,48.9,30.01,NE,44,5.0,14.0,62,0.00,,,0.00,Wunderground v.1.15,2013-04-05 19:05:00,
2013-04-05 14:10:00,61.8,49.5,30.00,NNE,26,6.0,14.0,64,0.00,,,0.00,Wunderground v.1.15,2013-04-05 19:10:00,
2013-04-05 14:15:00,62.1,49.8,30.00,North,9,5.0,14.0,64,0.00,,,0.00,Wunderground v.1.15,2013-04-05 19:15:00,
2013-04-05 14:20:00,62.0,48.8,30.00,NNE,27,6.0,14.0,62,0.00,,,0.00,Wunderground v.1.15,2013-04-05 19:20:00,
2013-04-05 14:25:00,62.4,49.2,30.00,NNE,28,6.0,14.0,62,0.00,,,0.00,Wunderground v.1.15,2013-04-05 19:25:00,
2013-04-05 14:35:00,63.6,50.3,30.00,NNE,15,4.0,14.0,62,0.00,,,0.00,Wunderground v.1.15,2013-04-05 19:35:00,
2013-04-05 14:40:00,63.4,49.7,29.99,NNW,332,5.0,14.0,61,0.00,,,0.00,Wunderground v.1.15,2013-04-05 19:40:00,
2013-04-05 14:45:00,63.4,49.3,29.99,NNE,23,4.0,14.0,60,0.00,,,0.00,Wunderground v.1.15,2013-04-05 19:45:00,
2013-04-05 15:00:00,64.3,49.7,29.99,NE,34,3.0,14.0,59,0.00,,,0.00,Wunderground v.1.15,2013-04-05 20:00:00,
2013-04-05 15:05:00,63.8,49.2,29.99,NE,36,4.0,14.0,59,0.00,,,0.00,Wunderground v.1.15,2013-04-05 20:05:00,
2013-04-05 15:10:00,64.1,50.8,29.98,NNE,14,4.0,12.0,62,0.00,,,0.00,Wunderground v.1.15,2013-04-05 20:10:00,
2013-04-05 15:15:00,64.7,50.5,29.98,NNE,25,3.0,12.0,60,0.00,,,0.00,Wunderground v.1.15,2013-04-05 20:15:00,
2013-04-05 15:25:00,65.1,50.0,29.98,NE,46,3.0,12.0,58,0.00,,,0.00,Wunderground v.1.15,2013-04-05 20:25:00,
2013-04-05 15:30:00,65.1,50.4,29.98,NNE,24,4.0,12.0,59,0.00,,,0.00,Wunderground v.1.15,2013-04-05 20:30:00,
2013-04-05 15:35:00,65.5,50.3,29.98,NE,52,3.0,12.0,58,0.00,,,0.00,Wunderground v.1.15,2013-04-05 20:35:00,
2013-04-05 15:40:00,65.6,50.0,29.98,NNE,24,3.0,3.0,57,0.00,,,0.00,Wunderground v.1.15,2013-04-05 20:40:00,
2013-04-05 15:45:00,66.2,50.5,29.98,NNE,20,3.0,12.0,57,0.00,,,0.00,Wunderground v.1.15,2013-04-05 20:45:00,
2013-04-05 15:50:00,66.2,50.0,29.98,North,360,3.0,3.0,56,0.00,,,0.00,Wunderground v.1.15,2013-04-05 20:50:00,
2013-04-05 15:55:00,66.7,50.0,29.97,NNE,19,3.0,12.0,55,0.00,,,0.00,Wunderground v.1.15,2013-04-05 20:55:00,
2013-04-05 16:05:00,66.5,49.3,29.97,NNE,21,4.0,12.0,54,0.00,,,0.00,Wunderground v.1.15,2013-04-05 21:05:00,
2013-04-05 16:10:00,66.4,49.7,29.96,NE,38,4.0,12.0,55,0.00,,,0.00,Wunderground v.1.15,2013-04-05 21:10:00,
2013-04-05 16:15:00,66.6,49.4,29.96,NE,34,3.0,12.0,54,0.00,,,0.00,Wunderground v.1.15,2013-04-05 21:15:00,
2013-04-05 16:20:00,66.7,49.5,29.96,NE,45,3.0,12.0,54,0.00,,,0.00,Wunderground v.1.15,2013-04-05 21:20:00,
2013-04-05 16:25:00,66.7,50.0,29.96,NE,48,4.0,12.0,55,0.00,,,0.00,Wunderground v.1.15,2013-04-05 21:25:00,
2013-04-05 16:30:00,66.7,49.5,29.96,NE,54,4.0,12.0,54,0.00,,,0.00,Wunderground v.1.15,2013-04-05 21:30:00,
2013-04-05 16:35:00,66.2,49.1,29.96,NNE,14,6.0,12.0,54,0.00,,,0.00,Wunderground v.1.15,2013-04-05 21:35:00,
2013-04-05 16:40:00,66.1,49.5,29.96,NE,55,6.0,12.0,55,0.00,,,0.00,Wunderground v.1.15,2013-04-05 21:40:00,
2013-04-05 16:45:00,66.2,49.6,29.96,NE,37,4.0,12.0,55,0.00,,,0.00,Wunderground v.1.15,2013-04-05 21:45:00,
2013-04-05 16:55:00,66.5,49.3,29.96,ENE,59,3.0,12.0,54,0.00,,,0.00,Wunderground v.1.15,2013-04-05 21:55:00,
2013-04-05 17:00:00,66.7,49.0,29.96,NW,325,3.0,3.0,53,0.00,,,0.00,Wunderground v.1.15,2013-04-05 22:00:00,
2013-04-05 17:05:00,66.7,49.0,29.96,North,11,1.0,12.0,53,0.00,,,0.00,Wunderground v.1.15,2013-04-05 22:05:00,
2013-04-05 17:10:00,66.7,49.5,29.96,NNW,345,2.0,12.0,54,0.00,,,0.00,Wunderground v.1.15,2013-04-05 22:10:00,
2013-04-05 17:15:00,66.4,48.7,29.96,North,5,3.0,12.0,53,0.00,,,0.00,Wunderground v.1.15,2013-04-05 22:15:00,
2013-04-05 17:20:00,66.0,48.9,29.96,NE,43,3.0,3.0,54,0.00,,,0.00,Wunderground v.1.15,2013-04-05 22:20:00,
2013-04-05 17:25:00,65.9,48.8,29.95,NE,52,3.0,12.0,54,0.00,,,0.00,Wunderground v.1.15,2013-04-05 22:25:00,
2013-04-05 17:30:00,65.9,48.8,29.95,NNE,30,3.0,12.0,54,0.00,,,0.00,Wunderground v.1.15,2013-04-05 22:30:00,
2013-04-05 17:35:00,65.7,48.6,29.95,NNE,25,3.0,12.0,54,0.00,,,0.00,Wunderground v.1.15,2013-04-05 22:35:00,
2013-04-05 17:40:00,65.6,49.0,29.96,NE,36,3.0,3.0,55,0.00,,,0.00,Wunderground v.1.15,2013-04-05 22:40:00,
2013-04-05 17:45:00,65.5,48.9,29.96,NNE,13,3.0,12.0,55,0.00,,,0.00,Wunderground v.1.15,2013-04-05 22:45:00,
2013-04-05 17:50:00,65.5,48.9,29.96,North,360,2.0,2.0,55,0.00,,,0.00,Wunderground v.1.15,2013-04-05 22:50:00,
2013-04-05 17:55:00,65.4,48.8,29.96,North,355,2.0,12.0,55,0.00,,,0.00,Wunderground v.1.15,2013-04-05 22:55:00,
2013-04-05 18:00:00,65.4,49.3,29.96,NNW,339,2.0,12.0,56,0.00,,,0.00,Wunderground v.1.15,2013-04-05 23:00:00,
2013-04-05 18:05:00,65.3,49.2,29.96,NE,42,1.0,12.0,56,0.00,,,0.00,Wunderground v.1.15,2013-04-05 23:05:00,
2013-04-05 18:10:00,65.2,48.6,29.96,NNE,31,2.0,12.0,55,0.00,,,0.00,Wunderground v.1.15,2013-04-05 23:10:00,
2013-04-05 18:20:00,64.9,49.8,29.96,NE,36,3.0,3.0,58,0.00,,,0.00,Wunderground v.1.15,2013-04-05 23:20:00,
2013-04-05 18:25:00,64.7,49.6,29.96,NNE,32,2.0,12.0,58,0.00,,,0.00,Wunderground v.1.15,2013-04-05 23:25:00,
2013-04-05 18:35:00,64.5,49.4,29.96,North,5,1.0,12.0,58,0.00,,,0.00,Wunderground v.1.15,2013-04-05 23:35:00,
2013-04-05 18:40:00,64.2,50.0,29.96,North,5,1.0,1.0,60,0.00,,,0.00,Wunderground v.1.15,2013-04-05 23:40:00,
2013-04-05 18:45:00,64.0,49.8,29.96,NNE,13,1.0,12.0,60,0.00,,,0.00,Wunderground v.1.15,2013-04-05 23:45:00,
2013-04-05 18:50:00,63.7,49.5,29.96,NE,49,1.0,1.0,60,0.00,,,0.00,Wunderground v.1.15,2013-04-05 23:50:00,
2013-04-05 18:55:00,63.4,49.7,29.97,NE,38,1.0,12.0,61,0.00,,,0.00,Wunderground v.1.15,2013-04-05 23:55:00,
2013-04-05 19:00:00,63.1,49.4,29.97,North,11,0.0,12.0,61,0.00,,,0.00,Wunderground v.1.15,2013-04-06 00:00:00,
2013-04-05 19:05:00,62.8,49.6,29.97,NNE,15,0.0,12.0,62,0.00,,,0.00,Wunderground v.1.15,2013-04-06 00:05:00,
2013-04-05 19:10:00,62.5,49.7,29.98,WNW,297,0.0,12.0,63,0.00,,,0.00,Wunderground v.1.15,2013-04-06 00:10:00,
2013-04-05 19:15:00,62.1,49.8,29.98,WNW,298,0.0,12.0,64,0.00,,,0.00,Wunderground v.1.15,2013-04-06 00:15:00,
2013-04-05 19:20:00,61.6,50.1,29.98,WNW,298,0.0,12.0,66,0.00,,,0.00,Wunderground v.1.15,2013-04-06 00:20:00,
2013-04-05 19:25:00,61.2,50.2,29.98,WNW,298,0.0,12.0,67,0.00,,,0.00,Wunderground v.1.15,2013-04-06 00:25:00,
2013-04-05 19:30:00,60.6,50.4,29.98,WNW,298,0.0,12.0,69,0.00,,,0.00,Wunderground v.1.15,2013-04-06 00:30:00,
2013-04-05 19:35:00,59.8,50.8,29.98,WNW,298,0.0,12.0,72,0.00,,,0.00,Wunderground v.1.15,2013-04-06 00:35:00,
2013-04-05 19:40:00,58.9,50.3,29.98,WNW,298,0.0,12.0,73,0.00,,,0.00,Wunderground v.1.15,2013-04-06 00:40:00,
2013-04-05 19:45:00,58.3,50.4,29.98,WNW,298,0.0,12.0,75,0.00,,,0.00,Wunderground v.1.15,2013-04-06 00:45:00,
2013-04-05 19:50:00,57.7,50.5,29.98,WNW,298,0.0,12.0,77,0.00,,,0.00,Wunderground v.1.15,2013-04-06 00:50:00,
2013-04-05 19:55:00,57.0,50.2,29.99,WNW,298,0.0,12.0,78,0.00,,,0.00,Wunderground v.1.15,2013-04-06 00:55:00,
2013-04-05 20:05:00,55.8,49.7,29.99,WNW,298,0.0,12.0,80,0.00,,,0.00,Wunderground v.1.15,2013-04-06 01:05:00,
2013-04-05 20:10:00,55.4,49.3,30.00,WNW,298,0.0,12.0,80,0.00,,,0.00,Wunderground v.1.15,2013-04-06 01:10:00,
2013-04-05 20:15:00,55.1,49.4,30.00,WNW,298,0.0,12.0,81,0.00,,,0.00,Wunderground v.1.15,2013-04-06 01:15:00,
2013-04-05 20:20:00,54.8,49.4,30.00,WNW,298,0.0,12.0,82,0.00,,,0.00,Wunderground v.1.15,2013-04-06 01:20:00,
2013-04-05 20:25:00,54.5,49.1,30.00,WNW,298,0.0,12.0,82,0.00,,,0.00,Wunderground v.1.15,2013-04-06 01:25:00,
2013-04-05 20:35:00,53.7,49.0,30.00,WNW,298,0.0,12.0,84,0.00,,,0.00,Wunderground v.1.15,2013-04-06 01:35:00,
2013-04-05 20:40:00,53.3,48.9,30.00,WNW,298,0.0,12.0,85,0.00,,,0.00,Wunderground v.1.15,2013-04-06 01:40:00,
2013-04-05 20:45:00,52.9,48.8,30.00,WNW,298,0.0,12.0,86,0.00,,,0.00,Wunderground v.1.15,2013-04-06 01:45:00,
2013-04-05 20:55:00,52.2,48.4,30.01,WNW,298,0.0,12.0,87,0.00,,,0.00,Wunderground v.1.15,2013-04-06 01:55:00,
2013-04-05 21:00:00,52.0,48.3,30.01,WNW,298,0.0,12.0,87,0.00,,,0.00,Wunderground v.1.15,2013-04-06 02:00:00,
2013-04-05 21:05:00,51.9,48.5,30.01,WNW,298,0.0,12.0,88,0.00,,,0.00,Wunderground v.1.15,2013-04-06 02:05:00,
2013-04-05 21:10:00,51.7,48.3,30.01,WNW,298,0.0,12.0,88,0.00,,,0.00,Wunderground v.1.15,2013-04-06 02:10:00,
2013-04-05 21:15:00,51.5,48.1,30.01,WNW,298,0.0,12.0,88,0.00,,,0.00,Wunderground v.1.15,2013-04-06 02:15:00,
2013-04-05 21:20:00,51.3,48.2,30.01,WNW,298,0.0,12.0,89,0.00,,,0.00,Wunderground v.1.15,2013-04-06 02:20:00,
2013-04-05 21:25:00,51.2,48.1,30.02,WNW,298,0.0,12.0,89,0.00,,,0.00,Wunderground v.1.15,2013-04-06 02:25:00,
2013-04-05 21:30:00,51.0,47.9,30.02,WNW,298,0.0,12.0,89,0.00,,,0.00,Wunderground v.1.15,2013-04-06 02:30:00,
2013-04-05 21:35:00,50.9,47.8,30.02,WNW,298,0.0,12.0,89,0.00,,,0.00,Wunderground v.1.15,2013-04-06 02:35:00,
2013-04-05 21:40:00,50.7,47.6,30.03,WNW,298,0.0,12.0,89,0.00,,,0.00,Wunderground v.1.15,2013-04-06 02:40:00,
2013-04-05 21:55:00,50.1,47.3,30.03,WNW,298,0.0,12.0,90,0.00,,,0.00,Wunderground v.1.15,2013-04-06 02:55:00,
2013-04-05 22:00:00,49.9,47.1,30.03,WNW,298,0.0,12.0,90,0.00,,,0.00,Wunderground v.1.15,2013-04-06 03:00:00,
2013-04-05 22:15:00,49.5,47.0,30.03,WNW,298,0.0,12.0,91,0.00,,,0.00,Wunderground v.1.15,2013-04-06 03:15:00,
2013-04-05 22:20:00,49.4,46.9,30.03,WNW,298,0.0,12.0,91,0.00,,,0.00,Wunderground v.1.15,2013-04-06 03:20:00,
2013-04-05 22:25:00,49.4,46.9,30.03,WNW,298,0.0,12.0,91,0.00,,,0.00,Wunderground v.1.15,2013-04-06 03:25:00,
2013-04-05 22:30:00,49.2,46.7,30.03,WNW,298,0.0,12.0,91,0.00,,,0.00,Wunderground v.1.15,2013-04-06 03:30:00,
2013-04-05 22:35:00,49.0,46.5,30.03,WNW,298,0.0,12.0,91,0.00,,,0.00,Wunderground v.1.15,2013-04-06 03:35:00,
2013-04-05 22:40:00,48.8,46.3,30.03,WNW,298,0.0,12.0,91,0.00,,,0.00,Wunderground v.1.15,2013-04-06 03:40:00,
2013-04-05 22:45:00,48.7,46.2,30.03,WNW,298,0.0,12.0,91,0.00,,,0.00,Wunderground v.1.15,2013-04-06 03:45:00,
2013-04-05 22:50:00,48.5,46.0,30.03,WNW,298,0.0,12.0,91,0.00,,,0.00,Wunderground v.1.15,2013-04-06 03:50:00,
2013-04-05 22:55:00,48.5,46.3,30.03,WNW,298,0.0,12.0,92,0.00,,,0.00,Wunderground v.1.15,2013-04-06 03:55:00,
2013-04-05 23:00:00,48.4,46.2,30.03,WNW,298,0.0,12.0,92,0.00,,,0.00,Wunderground v.1.15,2013-04-06 04:00:00,
2013-04-05 23:05:00,48.3,46.1,30.03,WNW,298,0.0,12.0,92,0.00,,,0.00,Wunderground v.1.15,2013-04-06 04:05:00,
2013-04-05 23:10:00,48.1,45.9,30.03,WNW,298,0.0,12.0,92,0.00,,,0.00,Wunderground v.1.15,2013-04-06 04:10:00,
2013-04-05 23:15:00,47.9,45.7,30.03,WNW,298,0.0,12.0,92,0.00,,,0.00,Wunderground v.1.15,2013-04-06 04:15:00,
2013-04-05 23:20:00,47.7,45.5,30.03,WNW,298,0.0,12.0,92,0.00,,,0.00,Wunderground v.1.15,2013-04-06 04:20:00,
2013-04-05 23:25:00,47.5,45.3,30.03,WNW,298,0.0,12.0,92,0.00,,,0.00,Wunderground v.1.15,2013-04-06 04:25:00,
2013-04-05 23:30:00,47.4,45.2,30.03,WNW,298,0.0,12.0,92,0.00,,,0.00,Wunderground v.1.15,2013-04-06 04:30:00,
2013-04-05 23:40:00,47.2,45.0,30.03,WNW,298,0.0,12.0,92,0.00,,,0.00,Wunderground v.1.15,2013-04-06 04:40:00,
2013-04-05 23:45:00,47.0,44.8,30.03,WNW,298,0.0,12.0,92,0.00,,,0.00,Wunderground v.1.15,2013-04-06 04:45:00,
2013-04-05 23:50:00,46.9,45.0,30.03,WNW,298,0.0,12.0,93,0.00,,,0.00,Wunderground v.1.15,2013-04-06 04:50:00,
2013-04-05 23:55:00,46.8,44.9,30.02,WNW,298,0.0,12.0,93,0.00,,,0.00,Wunderground v.1.15,2013-04-06 04:55:00,